This is the latest recevied weather packets stored in our database for station/object W4TJP. If no packets are shown the sender has not sent any weather packets the latest 10 day(s).
| Time | Temp. | Humidity | Pressure | Rain* | Wind** | Luminosity | Snow |
|---|---|---|---|---|---|---|---|
| 1777900715 | 15.56° C | 64% | 1015.5 hPa | 0 mm | - | 171 W/m² | - |
| 1777900412 | 15° C | 67% | 1015.5 hPa | 0 mm | - | 185 W/m² | - |
| 1777900109 | 13.89° C | 70% | 1015.5 hPa | 0 mm | - | 95 W/m² | - |
| 1777899805 | 12.78° C | 83% | 1015.5 hPa | 0 mm | - | 151 W/m² | - |
| 1777899502 | 11.67° C | 83% | 1015.6 hPa | 0 mm | - | 94 W/m² | - |
| 1777899200 | 11.11° C | 85% | 1015.7 hPa | 0 mm | - | 112 W/m² | - |
| 1777898897 | 11.11° C | 92% | 1015.7 hPa | 0 mm | - | 100 W/m² | - |
| 1777898594 | 10.56° C | 90% | 1016 hPa | 0 mm | - | 105 W/m² | - |
| 1777898291 | 10° C | 94% | 1015.7 hPa | 0 mm | - | 87 W/m² | - |
| 1777897989 | 9.44° C | 94% | 1015.7 hPa | 0 mm | - | 87 W/m² | - |
| 1777897684 | 9.44° C | 93% | 1015.7 hPa | 0 mm | - | 79 W/m² | - |
| 1777897381 | 8.33° C | 97% | 1015.6 hPa | 0 mm | - | 72 W/m² | - |
| 1777897077 | 7.78° C | 98% | 1015.7 hPa | 0 mm | - | 63 W/m² | - |
| 1777896774 | 7.78° C | 98% | 1015.7 hPa | 0 mm | - | 52 W/m² | - |
| 1777896471 | 7.22° C | 99% | 1015.6 hPa | 0 mm | - | 44 W/m² | - |
| 1777896168 | 7.22° C | 99% | 1015.8 hPa | 0 mm | - | 40 W/m² | - |
| 1777895866 | 6.67° C | 99% | 1015.5 hPa | 0 mm | - | 35 W/m² | - |
| 1777895563 | 6.67° C | 99% | 1015.6 hPa | 0 mm | - | 29 W/m² | - |
| 1777895261 | 6.67° C | 99% | 1015.4 hPa | 0 mm | - | 25 W/m² | - |
| 1777894958 | 6.11° C | 99% | 1015.5 hPa | 0 mm | - | 23 W/m² | - |
| 1777894656 | 6.11° C | 99% | 1015.5 hPa | 0 mm | - | 23 W/m² | - |
| 1777894352 | 6.11° C | 99% | 1015.3 hPa | 0 mm | - | 22 W/m² | - |
| 1777894050 | 5.56° C | 99% | 1015.1 hPa | 0 mm | - | 20 W/m² | - |
| 1777893746 | 5.56° C | 99% | 1015.2 hPa | 0 mm | - | 17 W/m² | - |
| 1777893443 | 5.56° C | 99% | 1015.3 hPa | 0 mm | - | 15 W/m² | - |
* Rain latest hour (hover to see other rain measurements)
** Current wind speed in m/s (hover to see current wind gust speed)